SAVIL Weather Reports


Display with metric or nautical units.
time (UTC)temp
F
wind
direction
speed
MPH
gust
MPH
rain 1hr
in
rain 24hr
in
rain mn
in
humidity
%
barometer
mb
20260503180705 50 279 5.0 8.0 0.00 0.00 0.00 35 1006.2
20260503174705 51 284 5.0 10.0 0.00 0.00 0.00 34 1006.1
20260503172710 51 284 6.0 11.0 0.00 0.00 0.00 31 1005.9
20260503170705 53 295 5.0 9.0 0.00 0.00 0.00 32 1005.8
20260503150704 54 303 7.0 13.0 0.00 0.00 0.00 30 1005.6
20260503130704 54 319 10.0 16.0 0.00 0.00 0.00 33 1005.4
20260503110704 51 360 4.0 8.0 0.00 0.00 0.00 50 1005.4
20260503080703 46 316 6.0 11.0 0.00 0.00 0.00 68 1005.4
20260503072703 45 313 10.0 14.0 0.00 0.00 0.00 67 1005.2
20260503070703 45 315 9.0 13.0 0.00 0.00 0.00 68 1005.0
20260503054703 47 329 6.0 10.0 0.00 0.00 0.00 61 1004.4
20260503052703 46 337 4.0 8.0 0.00 0.00 0.00 66 1004.4
20260503050703 46 326 4.0 6.0 0.00 0.00 0.00 67 1004.4
20260503044702 46 322 3.0 5.0 0.00 0.00 0.00 69 1004.3
20260503042702 46 317 3.0 5.0 0.00 0.00 0.00 64 1004.3
20260503040702 47 317 5.0 9.0 0.00 0.00 0.00 62 1004.3
20260503034702 48 324 7.0 12.0 0.00 0.00 0.00 57 1004.2
20260503032702 49 330 8.0 15.0 0.00 0.00 0.00 51 1004.0
20260503030702 49 342 6.0 10.0 0.00 0.00 0.00 56 1003.8
20260503024702 50 350 6.0 13.0 0.00 0.00 0.00 54 1003.6
20260503022702 50 339 8.0 16.0 0.00 0.00 0.00 60 1003.4
20260503020702 51 328 7.0 12.0 0.00 0.00 0.00 60 1003.4
20260503014702 52 295 6.0 11.0 0.00 0.00 0.00 59 1003.3
20260503012702 52 285 7.0 14.0 0.00 0.00 0.00 57 1003.1
20260503010702 53 263 7.0 11.0 0.00 0.00 0.00 55 1003.1
20260503004702 53 261 4.0 7.0 0.00 0.00 0.00 54 1002.9
20260503002702 53 253 5.0 9.0 0.00 0.00 0.00 53 1003.0
20260503000701 54 248 6.0 10.0 0.00 0.00 0.00 53 1003.0
20260502234701 54 251 5.0 9.0 0.00 0.00 0.00 52 1003.0
20260502232701 54 253 6.0 10.0 0.00 0.00 0.00 51 1003.0
20260502230701 54 264 5.0 9.0 0.00 0.00 0.00 51 1002.9
20260502224701 54 264 4.0 8.0 0.00 0.00 0.00 51 1003.0
20260502222701 55 262 6.0 9.0 0.00 0.00 0.00 49 1003.2
20260502220701 55 265 6.0 10.0 0.00 0.00 0.00 50 1003.3
20260502214701 55 273 6.0 10.0 0.00 0.00 0.00 48 1003.5
20260502212701 55 293 6.0 10.0 0.00 0.00 0.00 48 1003.5
20260502210701 56 286 6.0 10.0 0.00 0.00 0.00 47 1003.5
20260502204701 55 294 4.0 6.0 0.00 0.00 0.00 48 1003.5
20260502202701 56 303 4.0 6.0 0.00 0.00 0.00 47 1003.5
20260502200701 56 296 4.0 7.0 0.00 0.00 0.00 45 1003.5
20260502194701 57 316 6.0 11.0 0.00 0.00 0.00 45 1003.4
20260502192701 57 319 4.0 7.0 0.00 0.00 0.00 47 1003.4
20260502190700 57 307 5.0 9.0 0.00 0.00 0.00 46 1003.4
20260502184700 58 300 5.0 9.0 0.00 0.00 0.00 46 1003.2
20260502182700 58 304 5.0 9.0 0.00 0.00 0.00 45 1003.0